Regional Weather Roundup
Issued by NWS

Home | Current Version | Previous Version | Graphics & Text | Print | Product List | Glossary On
Versions: 1 2 3 4 5 6 7 8 9 10 11 12 13 14 15 16 17 18 19 20 21 22 23 24 25 26 27 28 29 30 31 32 33 34 35 36 37 38 39 40 41 42 43 44 45 46 47 48 49 50
446
ASUS43 KOAX 251802
RWRNE

WEATHER ROUNDUP FOR NEBRASKA
NATIONAL WEATHER SERVICE OMAHA NE
100 PM CDT SAT MAR 25 2017

NOTES: SATELLITE DATA IS BEING USED TO AUGMENT CLOUD COVER ABOVE
       12000 FEET.
       "FAIR" INDICATES FEW OR NO CLOUDS BELOW 12,000 FEET WITH NO
       SIGNIFICANT WEATHER AND/OR OBSTRUCTIONS TO VISIBILITY.

  * THESE STATIONS DO NOT REPORT WEATHER SUCH AS RAIN...SNOW OR FOG.

NEZ001>004-019>022-054>056-251900-
NEBRASKA PANHANDLE

CITY           SKY/WX    TMP DP  RH WIND       PRES   REMARKS
SCOTTSBLUFF    FAIR      61  34  36 S8        29.95F
6HR MIN TEMP:  30; 6HR MAX TEMP:  62;

ALLIANCE       FAIR      60  30  32 SW16      29.96F
6HR MIN TEMP:  24; 6HR MAX TEMP:  60;

CHADRON        FAIR      65  31  28 SW13      29.91F
6HR MIN TEMP:  30; 6HR MAX TEMP:  65;

KIMBALL        FAIR      58  34  41 S12       29.99F
SIDNEY         FAIR      57  30  35 SW12      30.00F
6HR MIN TEMP:  20; 6HR MAX TEMP:  57;

$$

NEZ057>060-069>072-079>082-251900-
SOUTHWEST NEBRASKA

CITY           SKY/WX    TMP DP  RH WIND       PRES   REMARKS
NORTH PLATTE   FAIR      55  32  41 W5        30.00F
6HR MIN TEMP:  25; 6HR MAX TEMP:  56;

IMPERIAL       FAIR      54  29  38 N5        30.02F
6HR MIN TEMP:  29; 6HR MAX TEMP:  54;

LEXINGTON      CLOUDY    45  40  82 NE8       30.01F
MCCOOK         FAIR      55  36  48 NW9       30.00F
6HR MIN TEMP:  32; 6HR MAX TEMP:  56;

OGALLALA       FAIR      55  26  32 W3        30.01F
$$

NEZ005>010-023>029-035>040-094-251900-
NORTH CENTRAL NEBRASKA

CITY           SKY/WX    TMP DP  RH WIND       PRES   REMARKS
VALENTINE      FAIR      56  20  24 SE7       30.00F
6HR MIN TEMP:  21; 6HR MAX TEMP:  56;

AINSWORTH      FAIR      46  37  70 E6        30.01F
BROKEN BOW     CLOUDY    43  39  86 NE8       30.01F
6HR MIN TEMP:  32; 6HR MAX TEMP:  43;

O`NEILL        FOG       37  37  99 N7        30.04F VSB 1   WCI  31
ORD            CLOUDY    39  36  89 N10       30.00F WCI  32
6HR MIN TEMP:  35; 6HR MAX TEMP:  39;

THEDFORD       FAIR      56  24  28 CALM      30.01F
$$

NEZ041-046>049-061>064-073>077-083>087-251900-
SOUTH CENTRAL NEBRASKA

CITY           SKY/WX    TMP DP  RH WIND       PRES   REMARKS
GRAND ISLAND   CLOUDY    38  38 100 N13       30.00F WCI  30
6HR MIN TEMP:  35; 6HR MAX TEMP:  38;

AURORA         CLOUDY    37  37 100 N16       30.00F FOG     WCI  27
HASTINGS       CLOUDY    38  36  92 N16       30.00F WCI  29
6HR MIN TEMP:  36; 6HR MAX TEMP:  38;

HEBRON         CLOUDY    39  37  93 N14G20    29.99F FOG     WCI  30
HOLDREGE       CLOUDY    41  38  89 N13       30.00F
KEARNEY *      CLOUDY    39  36  87 N15       30.00F WCI  31
YORK           CLOUDY    37  37 100 N15       30.00F FOG     WCI  28
$$

NEZ011>018-030>034-042>045-251900-
NORTHEAST NEBRASKA

CITY           SKY/WX    TMP DP  RH WIND       PRES   REMARKS
NORFOLK        CLOUDY    38  36  92 N14       30.02S WCI  30
6HR MIN TEMP:  35; 6HR MAX TEMP:  38; 6HR PCP: TRACE;

ALBION         CLOUDY    40  37  87 N13       30.01F WCI  33
BLAIR          CLOUDY    42  40  93 N17       29.95F
FREMONT        CLOUDY    40  39  97 N12G17    30.00F WCI  33
TEKAMAH        CLOUDY    40  37  89 N16       30.00F WCI  31
6HR MIN TEMP:  39; 6HR MAX TEMP:  41; 6HR PCP:  0.16;

WAYNE          CLOUDY    38  38  99 NE16      30.02F FOG     WCI  29
$$

NEZ050>053-065>068-078-088>093-251900-
SOUTHEAST NEBRASKA

CITY           SKY/WX    TMP DP  RH WIND       PRES   REMARKS
LINCOLN        CLOUDY    42  39  89 N20       29.99F
6HR MIN TEMP:  40; 6HR MAX TEMP:  42; 6HR PCP:  0.08;

OMAHA EPPLEY   CLOUDY    43  38  82 N14       29.96F
6HR MIN TEMP:  40; 6HR MAX TEMP:  43; 6HR PCP:  0.25;

BEATRICE       CLOUDY    43  42  97 N14       29.95S
FALLS CITY     LGT RAIN  45  43  93 N13       29.89F
6HR MIN TEMP:  43; 6HR MAX TEMP:  45; 6HR PCP:  0.16;

NEBRASKA CITY  CLOUDY    41  41 100 NE15      29.93F
PLATTSMOUTH    CLOUDY    42  38  84 N12       29.95S
$$

NEZ044-045-051>053-067-251900-
OMAHA AREA

CITY           SKY/WX    TMP DP  RH WIND       PRES   REMARKS
OMAHA EPPLEY   CLOUDY    43  38  82 N14       29.96F
6HR MIN TEMP:  40; 6HR MAX TEMP:  43; 6HR PCP:  0.25;

BLAIR          CLOUDY    42  40  93 N17       29.95F
FREMONT        CLOUDY    40  39  97 N12G17    30.00F WCI  33
MILLARD        CLOUDY    43  41  94 N10G16    29.97S
OFFUTT AFB     CLOUDY    43  39  86 N14       29.96S
PLATTSMOUTH    CLOUDY    42  38  84 N12       29.95S
WAHOO          CLOUDY    40  38  92 N15       29.98F WCI  32
$$




USA.gov is the U.S. government's official web portal to all federal, state and local government web resources and services.